When you browse on this site, cookies collect data to enhance your experience and personalize the content and advertising you see.
Visit our Privacy Policy to learn more. By continuing to use the site, you agree to this use of cookies and data.
  • en France
  • Liste des pays
  • À 7 jours
  • Température de l'eau
  • Carte satellitaire
  • Carte météo
  • Widgets météo
  • user-avatar
    Se connecter

    Météo par heure à Salzbourg

    Ce jour, 26 Juin, Mercredi

    Heure Température Précipitation Vent Pression Humidité
    00:00 +15°C° 0 mm 1 m/s 635 mmHg 82%
    01:00 +14°C° 0 mm 2 m/s 635 mmHg 82%
    02:00 +14°C° 0 mm 2 m/s 634 mmHg 80%
    03:00 +14°C° 0 mm 1 m/s 634 mmHg 77%
    04:00 +14°C° 0 mm 1 m/s 634 mmHg 74%
    05:00 +16°C° 0 mm 1 m/s 635 mmHg 70%
    06:00 +19°C° 0 mm 1 m/s 635 mmHg 66%
    07:00 +21°C° 0 mm 1 m/s 637 mmHg 61%
    08:00 +23°C° 0 mm 1 m/s 637 mmHg 53%
    09:00 +25°C° 0 mm 1 m/s 638 mmHg 45%
    10:00 +28°C° 0 mm 1 m/s 639 mmHg 36%
    11:00 +28°C° 0 mm 1 m/s 639 mmHg 34%
    12:00 +29°C° 0 mm 1 m/s 639 mmHg 32%
    13:00 +29°C° 0 mm 2 m/s 639 mmHg 30%
    14:00 +29°C° 0 mm 2 m/s 639 mmHg 33%
    15:00 +28°C° 0 mm 2 m/s 638 mmHg 35%
    16:00 +28°C° 0 mm 2 m/s 638 mmHg 37%
    17:00 +26°C° 0 mm 2 m/s 637 mmHg 49%
    18:00 +24°C° 0 mm 1 m/s 637 mmHg 61%
    19:00 +22°C° 0 mm 1 m/s 636 mmHg 72%
    20:00 +20°C° 0 mm 1 m/s 636 mmHg 72%
    21:00 +19°C° 0 mm 1 m/s 635 mmHg 71%
    22:00 +16°C° 0 mm 1 m/s 635 mmHg 71%
    23:00 +16°C° 0 mm 1 m/s 635 mmHg 70%

    Demain, 27 Juin, Jeudi

    Heure Température Précipitation Vent Pression Humidité
    00:00 +16°C° 0 mm 1 m/s 635 mmHg 70%
    01:00 +15°C° 0 mm 1 m/s 635 mmHg 70%
    02:00 +15°C° 0 mm 1 m/s 634 mmHg 70%
    03:00 +15°C° 0 mm 1 m/s 634 mmHg 70%
    04:00 +14°C° 0 mm 1 m/s 633 mmHg 70%
    05:00 +16°C° 0 mm 1 m/s 634 mmHg 67%
    06:00 +19°C° 0 mm 1 m/s 635 mmHg 64%
    07:00 +21°C° 0 mm 1 m/s 635 mmHg 62%
    08:00 +23°C° 0 mm 1 m/s 636 mmHg 55%
    09:00 +25°C° 0 mm 1 m/s 636 mmHg 48%
    10:00 +26°C° 0 mm 2 m/s 637 mmHg 41%
    11:00 +27°C° 0.2 mm 2 m/s 637 mmHg 44%
    12:00 +27°C° 0.2 mm 2 m/s 636 mmHg 46%
    13:00 +27°C° 0.2 mm 3 m/s 636 mmHg 48%
    14:00 +26°C° 0.7 mm 3 m/s 636 mmHg 54%
    15:00 +24°C° 0.7 mm 2 m/s 635 mmHg 61%
    16:00 +23°C° 0.7 mm 2 m/s 634 mmHg 67%
    17:00 +21°C° 1.1 mm 2 m/s 634 mmHg 75%
    18:00 +19°C° 1.1 mm 2 m/s 633 mmHg 83%
    19:00 +19°C° 1.1 mm 1 m/s 633 mmHg 91%
    20:00 +16°C° 0.1 mm 1 m/s 633 mmHg 93%
    21:00 +15°C° 0.1 mm 1 m/s 633 mmHg 94%
    22:00 +14°C° 0.1 mm 1 m/s 633 mmHg 96%
    23:00 +14°C° 0.1 mm 1 m/s 632 mmHg 96%

    Après-demain, 28 Juin, Vendredi

    Heure Température Précipitation Vent Pression Humidité
    00:00 +13°C° 0.1 mm 1 m/s 632 mmHg 97%
    01:00 +13°C° 0.1 mm 1 m/s 632 mmHg 97%
    02:00 +13°C° 0 mm 1 m/s 632 mmHg 98%
    03:00 +12°C° 0 mm 1 m/s 632 mmHg 98%
    04:00 +12°C° 0 mm 1 m/s 632 mmHg 98%
    05:00 +12°C° 0 mm 1 m/s 632 mmHg 97%
    06:00 +13°C° 0 mm 1 m/s 632 mmHg 96%
    07:00 +14°C° 0 mm 1 m/s 632 mmHg 94%
    08:00 +15°C° 0 mm 1 m/s 632 mmHg 86%
    09:00 +16°C° 0 mm 1 m/s 633 mmHg 77%
    10:00 +19°C° 0 mm 1 m/s 633 mmHg 69%
    11:00 +19°C° 0 mm 2 m/s 633 mmHg 60%
    12:00 +20°C° 0 mm 2 m/s 633 mmHg 51%
    13:00 +23°C° 0 mm 2 m/s 633 mmHg 42%
    14:00 +21°C° 0 mm 2 m/s 633 mmHg 44%
    15:00 +21°C° 0 mm 2 m/s 633 mmHg 46%
    16:00 +20°C° 0 mm 2 m/s 633 mmHg 48%
    17:00 +19°C° 0 mm 2 m/s 633 mmHg 58%
    18:00 +17°C° 0 mm 2 m/s 632 mmHg 67%
    19:00 +16°C° 0 mm 1 m/s 632 mmHg 77%
    20:00 +14°C° 0 mm 1 m/s 631 mmHg 82%
    21:00 +12°C° 0 mm 1 m/s 631 mmHg 87%
    22:00 +9°C° 0 mm 0 m/s 631 mmHg 93%
    23:00 +9°C° 0 mm 0 m/s 631 mmHg 93%

    29 Juin, Samedi

    Heure Température Précipitation Vent Pression Humidité
    00:00 +10°C° 0 mm 1 m/s 630 mmHg 93%
    01:00 +9°C° 0 mm 1 m/s 630 mmHg 93%
    02:00 +9°C° 0 mm 1 m/s 630 mmHg 93%
    03:00 +9°C° 0 mm 1 m/s 630 mmHg 93%
    04:00 +9°C° 0 mm 1 m/s 630 mmHg 93%
    05:00 +11°C° 0 mm 1 m/s 630 mmHg 86%
    06:00 +13°C° 0 mm 1 m/s 631 mmHg 80%
    07:00 +14°C° 0 mm 0 m/s 632 mmHg 73%
    08:00 +18°C° 0 mm 1 m/s 632 mmHg 62%
    09:00 +20°C° 0 mm 1 m/s 633 mmHg 51%
    10:00 +23°C° 0 mm 1 m/s 634 mmHg 40%
    11:00 +24°C° 0 mm 1 m/s 634 mmHg 37%
    12:00 +24°C° 0 mm 1 m/s 634 mmHg 34%
    13:00 +25°C° 0 mm 1 m/s 634 mmHg 31%
    14:00 +25°C° 0 mm 2 m/s 634 mmHg 34%
    15:00 +25°C° 0 mm 2 m/s 634 mmHg 36%
    16:00 +24°C° 0 mm 2 m/s 634 mmHg 39%
    17:00 +23°C° 0 mm 1 m/s 633 mmHg 53%
    18:00 +21°C° 0 mm 1 m/s 632 mmHg 65%
    19:00 +19°C° 0 mm 1 m/s 632 mmHg 77%
    20:00 +16°C° 0 mm 1 m/s 632 mmHg 80%
    21:00 +15°C° 0 mm 1 m/s 631 mmHg 84%
    22:00 +13°C° 0 mm 1 m/s 631 mmHg 87%
    23:00 +13°C° 0 mm 2 m/s 631 mmHg 87%

    30 Juin, Dimanche

    Heure Température Précipitation Vent Pression Humidité
    00:00 +13°C° 0 mm 2 m/s 631 mmHg 86%
    01:00 +12°C° 0 mm 2 m/s 630 mmHg 86%
    02:00 +12°C° 0 mm 2 m/s 630 mmHg 84%
    03:00 +12°C° 0 mm 1 m/s 630 mmHg 83%
    04:00 +12°C° 0 mm 1 m/s 630 mmHg 81%
    05:00 +14°C° 0 mm 1 m/s 631 mmHg 75%
    06:00 +16°C° 0 mm 1 m/s 632 mmHg 69%
    07:00 +17°C° 0 mm 0 m/s 632 mmHg 64%
    08:00 +21°C° 0 mm 1 m/s 633 mmHg 54%
    09:00 +24°C° 0 mm 1 m/s 634 mmHg 45%
    10:00 +26°C° 0 mm 1 m/s 635 mmHg 36%
    11:00 +27°C° 0 mm 1 m/s 635 mmHg 34%
    12:00 +27°C° 0 mm 1 m/s 635 mmHg 33%
    13:00 +28°C° 0 mm 2 m/s 635 mmHg 31%
    14:00 +28°C° 0 mm 2 m/s 635 mmHg 34%
    15:00 +27°C° 0 mm 2 m/s 634 mmHg 36%
    16:00 +27°C° 0 mm 2 m/s 634 mmHg 39%
    17:00 +25°C° 0 mm 2 m/s 634 mmHg 51%
    18:00 +23°C° 0 mm 1 m/s 633 mmHg 63%
    19:00 +21°C° 0 mm 1 m/s 633 mmHg 75%
    20:00 +20°C° 0.1 mm 1 m/s 632 mmHg 78%
    21:00 +18°C° 0.1 mm 1 m/s 632 mmHg 81%
    22:00 +15°C° 0.1 mm 1 m/s 632 mmHg 85%
    23:00 +15°C° 0 mm 1 m/s 632 mmHg 84%

    1 Juillet, Lundi

    Heure Température Précipitation Vent Pression Humidité
    00:00 +14°C° 0 mm 1 m/s 631 mmHg 83%
    01:00 +14°C° 0 mm 1 m/s 631 mmHg 82%
    02:00 +14°C° 0 mm 1 m/s 631 mmHg 80%
    03:00 +13°C° 0 mm 2 m/s 630 mmHg 77%
    04:00 +13°C° 0 mm 2 m/s 630 mmHg 75%
    05:00 +15°C° 0 mm 2 m/s 631 mmHg 71%
    06:00 +18°C° 0 mm 1 m/s 631 mmHg 66%
    07:00 +19°C° 0 mm 1 m/s 632 mmHg 61%
    08:00 +22°C° 0 mm 1 m/s 633 mmHg 51%
    09:00 +25°C° 0 mm 1 m/s 633 mmHg 41%
    10:00 +28°C° 0 mm 1 m/s 634 mmHg 30%
    11:00 +28°C° 0 mm 1 m/s 634 mmHg 29%
    12:00 +28°C° 0 mm 2 m/s 634 mmHg 29%
    13:00 +28°C° 0 mm 2 m/s 634 mmHg 28%
    14:00 +28°C° 0 mm 2 m/s 633 mmHg 31%
    15:00 +27°C° 0 mm 2 m/s 633 mmHg 35%
    16:00 +26°C° 0 mm 2 m/s 632 mmHg 39%
    17:00 +21°C° 3.5 mm 2 m/s 631 mmHg 57%
    18:00 +18°C° 3.5 mm 2 m/s 631 mmHg 75%
    19:00 +14°C° 3.5 mm 2 m/s 630 mmHg 93%
    20:00 +14°C° 0.1 mm 2 m/s 630 mmHg 92%
    21:00 +13°C° 0.1 mm 2 m/s 630 mmHg 91%
    22:00 +13°C° 0.1 mm 2 m/s 630 mmHg 91%
    23:00 +13°C° 0.1 mm 2 m/s 630 mmHg 90%
    Voir plus